• In Lithuania
  • List of Countries
  • For 7 days
  • Water Temperature
  • Satellite Maps
  • Weather Map
  • Weather Widgets
  • user-avatar
    Login

    Hourly Weather Newcastle

    Today, 24 September, Sunday

    Time Temperature Precipitation Wind Pressure Humidity
    00:00 +28°C° 0 mm 6 mps 751 mmHg 22%
    01:00 +29°C° 0 mm 6 mps 750 mmHg 20%
    02:00 +29°C° 0 mm 6 mps 750 mmHg 19%
    03:00 +30°C° 0 mm 6 mps 750 mmHg 19%
    04:00 +30°C° 0 mm 6 mps 750 mmHg 18%
    05:00 +30°C° 0 mm 6 mps 750 mmHg 20%
    06:00 +30°C° 0 mm 6 mps 751 mmHg 22%
    07:00 +30°C° 0 mm 7 mps 752 mmHg 23%
    08:00 +32°C° 0 mm 6 mps 752 mmHg 22%
    09:00 +33°C° 0 mm 6 mps 752 mmHg 21%
    10:00 +34°C° 0 mm 6 mps 752 mmHg 21%
    11:00 +35°C° 0 mm 6 mps 752 mmHg 21%
    12:00 +35°C° 0 mm 5 mps 751 mmHg 20%
    13:00 +36°C° 0 mm 5 mps 751 mmHg 20%
    14:00 +35°C° 0 mm 4 mps 751 mmHg 22%
    15:00 +35°C° 0 mm 4 mps 751 mmHg 24%
    16:00 +33°C° 0 mm 3 mps 751 mmHg 25%
    17:00 +29°C° 0 mm 3 mps 751 mmHg 30%
    18:00 +27°C° 0 mm 2 mps 752 mmHg 36%
    19:00 +24°C° 0 mm 2 mps 752 mmHg 42%
    20:00 +23°C° 0 mm 2 mps 753 mmHg 42%
    21:00 +22°C° 0 mm 1 mps 753 mmHg 43%
    22:00 +22°C° 0 mm 1 mps 753 mmHg 36%
    23:00 +22°C° 0 mm 1 mps 753 mmHg 38%

    Tomorrow, 25 September, Monday

    Time Temperature Precipitation Wind Pressure Humidity
    00:00 +20°C° 0 mm 2 mps 753 mmHg 40%
    01:00 +19°C° 0 mm 2 mps 753 mmHg 42%
    02:00 +19°C° 0 mm 2 mps 753 mmHg 44%
    03:00 +18°C° 0 mm 3 mps 754 mmHg 45%
    04:00 +18°C° 0 mm 3 mps 754 mmHg 47%
    05:00 +18°C° 0 mm 3 mps 754 mmHg 45%
    06:00 +19°C° 0 mm 4 mps 755 mmHg 44%
    07:00 +19°C° 0 mm 4 mps 755 mmHg 42%
    08:00 +22°C° 0 mm 4 mps 755 mmHg 35%
    09:00 +25°C° 0 mm 4 mps 755 mmHg 29%
    10:00 +28°C° 0 mm 5 mps 755 mmHg 22%
    11:00 +29°C° 0 mm 5 mps 755 mmHg 20%
    12:00 +30°C° 0 mm 4 mps 754 mmHg 19%
    13:00 +33°C° 0 mm 4 mps 754 mmHg 17%
    14:00 +30°C° 0 mm 4 mps 754 mmHg 20%
    15:00 +29°C° 0 mm 4 mps 754 mmHg 22%
    16:00 +28°C° 0 mm 4 mps 755 mmHg 25%
    17:00 +27°C° 0 mm 4 mps 755 mmHg 27%
    18:00 +25°C° 0 mm 3 mps 756 mmHg 28%
    19:00 +24°C° 0 mm 3 mps 757 mmHg 30%
    20:00 +22°C° 0 mm 3 mps 757 mmHg 33%
    21:00 +20°C° 0 mm 3 mps 758 mmHg 37%
    22:00 +19°C° 0 mm 3 mps 758 mmHg 40%
    23:00 +18°C° 0 mm 3 mps 759 mmHg 45%

    Day after tomorrow, 26 September, Tuesday

    Time Temperature Precipitation Wind Pressure Humidity
    00:00 +15°C° 0 mm 4 mps 759 mmHg 49%
    01:00 +14°C° 0 mm 4 mps 759 mmHg 53%
    02:00 +13°C° 0 mm 4 mps 759 mmHg 55%
    03:00 +13°C° 0 mm 4 mps 760 mmHg 56%
    04:00 +12°C° 0 mm 4 mps 760 mmHg 58%
    05:00 +13°C° 0 mm 4 mps 760 mmHg 57%
    06:00 +13°C° 0 mm 3 mps 761 mmHg 56%
    07:00 +14°C° 0 mm 3 mps 761 mmHg 54%
    08:00 +18°C° 0 mm 3 mps 761 mmHg 47%
    09:00 +21°C° 0 mm 2 mps 761 mmHg 40%
    10:00 +25°C° 0 mm 2 mps 761 mmHg 33%
    11:00 +26°C° 0 mm 2 mps 761 mmHg 31%
    12:00 +26°C° 0 mm 3 mps 761 mmHg 28%
    13:00 +27°C° 0 mm 3 mps 760 mmHg 26%
    14:00 +26°C° 0 mm 3 mps 760 mmHg 29%
    15:00 +25°C° 0 mm 4 mps 760 mmHg 33%
    16:00 +23°C° 0 mm 4 mps 760 mmHg 36%
    17:00 +21°C° 0 mm 4 mps 760 mmHg 47%
    18:00 +18°C° 0 mm 4 mps 761 mmHg 58%
    19:00 +15°C° 0 mm 4 mps 762 mmHg 70%
    20:00 +14°C° 0 mm 3 mps 762 mmHg 74%
    21:00 +14°C° 0 mm 3 mps 763 mmHg 79%
    22:00 +13°C° 0 mm 3 mps 763 mmHg 84%
    23:00 +13°C° 0 mm 3 mps 763 mmHg 85%

    27 September, Wednesday

    Time Temperature Precipitation Wind Pressure Humidity
    00:00 +13°C° 0 mm 3 mps 762 mmHg 87%
    01:00 +13°C° 0 mm 3 mps 762 mmHg 89%
    02:00 +12°C° 0 mm 3 mps 762 mmHg 90%
    03:00 +12°C° 0 mm 3 mps 762 mmHg 91%
    04:00 +12°C° 0 mm 3 mps 762 mmHg 91%
    05:00 +14°C° 0 mm 3 mps 762 mmHg 87%
    06:00 +15°C° 0 mm 4 mps 762 mmHg 83%
    07:00 +17°C° 0 mm 4 mps 762 mmHg 78%
    08:00 +19°C° 0 mm 4 mps 762 mmHg 70%
    09:00 +22°C° 0 mm 5 mps 761 mmHg 62%
    10:00 +24°C° 0 mm 6 mps 761 mmHg 54%
    11:00 +27°C° 0 mm 6 mps 760 mmHg 50%
    12:00 +29°C° 0 mm 7 mps 758 mmHg 46%
    13:00 +30°C° 0 mm 7 mps 757 mmHg 42%
    14:00 +30°C° 0 mm 7 mps 756 mmHg 44%
    15:00 +30°C° 0 mm 7 mps 755 mmHg 47%
    16:00 +30°C° 0 mm 7 mps 754 mmHg 49%
    17:00 +28°C° 0 mm 8 mps 754 mmHg 60%
    18:00 +24°C° 0 mm 8 mps 754 mmHg 71%
    19:00 +22°C° 0 mm 8 mps 753 mmHg 81%
    20:00 +22°C° 0 mm 8 mps 753 mmHg 80%
    21:00 +22°C° 0 mm 8 mps 753 mmHg 79%
    22:00 +22°C° 0 mm 7 mps 753 mmHg 77%
    23:00 +22°C° 0 mm 7 mps 753 mmHg 73%

    28 September, Thursday

    Time Temperature Precipitation Wind Pressure Humidity
    00:00 +22°C° 0 mm 6 mps 754 mmHg 68%
    01:00 +22°C° 0 mm 6 mps 754 mmHg 63%
    02:00 +20°C° 0.1 mm 5 mps 755 mmHg 66%
    03:00 +19°C° 0.1 mm 4 mps 755 mmHg 68%
    04:00 +18°C° 0.1 mm 4 mps 756 mmHg 71%
    05:00 +17°C° 0.1 mm 5 mps 756 mmHg 69%
    06:00 +17°C° 0.1 mm 5 mps 757 mmHg 67%
    07:00 +17°C° 0.1 mm 6 mps 757 mmHg 65%
    08:00 +19°C° 0.2 mm 6 mps 758 mmHg 66%
    09:00 +18°C° 0.2 mm 7 mps 758 mmHg 67%
    10:00 +18°C° 0.2 mm 7 mps 758 mmHg 68%
    11:00 +20°C° 0 mm 7 mps 758 mmHg 60%
    12:00 +21°C° 0 mm 7 mps 757 mmHg 53%
    13:00 +22°C° 0 mm 7 mps 757 mmHg 45%
    14:00 +23°C° 0 mm 6 mps 756 mmHg 42%
    15:00 +25°C° 0 mm 5 mps 756 mmHg 38%
    16:00 +26°C° 0 mm 4 mps 756 mmHg 34%
    17:00 +23°C° 0 mm 4 mps 756 mmHg 36%
    18:00 +22°C° 0 mm 4 mps 757 mmHg 39%
    19:00 +21°C° 0 mm 4 mps 758 mmHg 41%
    20:00 +21°C° 0 mm 4 mps 758 mmHg 41%
    21:00 +20°C° 0 mm 4 mps 758 mmHg 42%
    22:00 +20°C° 0 mm 4 mps 759 mmHg 42%
    23:00 +20°C° 0 mm 4 mps 758 mmHg 42%

    29 September, Friday

    Time Temperature Precipitation Wind Pressure Humidity
    00:00 +20°C° 0 mm 4 mps 758 mmHg 43%
    01:00 +20°C° 0 mm 4 mps 758 mmHg 43%
    02:00 +19°C° 0 mm 4 mps 758 mmHg 46%
    03:00 +18°C° 0 mm 4 mps 759 mmHg 49%
    04:00 +17°C° 0 mm 4 mps 759 mmHg 52%
    05:00 +17°C° 0 mm 4 mps 760 mmHg 52%
    06:00 +17°C° 0 mm 4 mps 760 mmHg 52%
    07:00 +17°C° 0 mm 4 mps 761 mmHg 53%
    08:00 +19°C° 0 mm 4 mps 761 mmHg 46%
    09:00 +21°C° 0 mm 4 mps 761 mmHg 39%
    10:00 +23°C° 0 mm 4 mps 761 mmHg 32%
    11:00 +25°C° 0 mm 4 mps 760 mmHg 30%
    12:00 +26°C° 0 mm 3 mps 760 mmHg 27%
    13:00 +27°C° 0 mm 3 mps 759 mmHg 24%
    14:00 +27°C° 0 mm 3 mps 759 mmHg 25%
    15:00 +27°C° 0 mm 3 mps 758 mmHg 25%
    16:00 +27°C° 0 mm 3 mps 758 mmHg 25%
    17:00 +25°C° 0 mm 3 mps 759 mmHg 32%
    18:00 +21°C° 0 mm 2 mps 759 mmHg 39%
    19:00 +18°C° 0 mm 2 mps 760 mmHg 47%
    20:00 +17°C° 0 mm 2 mps 761 mmHg 48%
    21:00 +16°C° 0 mm 2 mps 761 mmHg 49%
    22:00 +15°C° 0 mm 1 mps 761 mmHg 50%
    23:00 +15°C° 0 mm 2 mps 761 mmHg 52%
    Show more